EW5448 Weather Reports


Display with metric or nautical units.
time (UTC)temp
F
wind
direction
speed
MPH
gust
MPH
rain 1hr
in
rain 24hr
in
rain mn
in
humidity
%
barometer
mb
20260904093054 76 263 0.0 1.0 0.00 0.00 0.00 19 991.9
20260904091549 76 263 0.0 0.0 0.00 0.00 0.00 19 991.8
20260904090046 78 263 0.0 1.0 0.00 0.00 0.00 18 991.9
20260904084543 79 211 0.0 2.0 0.00 0.00 0.00 17 991.9
20260904083042 80 217 0.0 2.0 0.00 0.00 0.00 17 991.9
20260904081538 80 192 0.0 1.0 0.00 0.00 0.00 16 991.9
20260904080035 82 162 0.0 5.0 0.00 0.00 0.00 15 991.9
20260904074536 83 153 0.0 3.0 0.00 0.00 0.00 14 991.8
20260904073029 84 149 2.0 6.0 0.00 0.00 0.00 14 991.9
20260904071527 85 146 4.0 7.0 0.00 0.00 0.00 14 991.9
20260904070025 85 146 5.0 8.0 0.00 0.00 0.00 14 991.9
20260904064524 85 172 3.0 7.0 0.00 0.00 0.00 14 991.9
20260904063024 87 176 4.0 8.0 0.00 0.00 0.00 14 991.7
20260904061526 88 146 6.0 9.0 0.00 0.00 0.00 14 991.6
20260904060023 88 138 5.0 10.0 0.00 0.00 0.00 14 991.5
20260904054523 88 130 5.0 9.0 0.00 0.00 0.00 14 991.3
20260904053026 87 146 5.0 9.0 0.00 0.00 0.00 14 991.4
20260904051548 87 147 3.0 8.0 0.00 0.00 0.00 13 991.4
20260904050021 87 149 4.0 8.0 0.00 0.00 0.00 14 991.5
20260904044524 85 115 2.0 5.0 0.00 0.00 0.00 16 991.4
20260904043020 86 128 0.0 2.0 0.00 0.00 0.00 15 991.4
20260904041522 87 154 0.0 4.0 0.00 0.00 0.00 14 991.2
20260904040120 89 161 1.0 5.0 0.00 0.00 0.00 13 991.1
20260904034518 89 137 1.0 6.0 0.00 0.00 0.00 12 990.9
20260904033018 89 130 3.0 6.0 0.00 0.00 0.00 13 990.7
20260904031517 90 150 1.0 5.0 0.00 0.00 0.00 13 990.6
20260904030017 90 127 1.0 3.0 0.00 0.00 0.00 13 990.4
20260904024517 91 138 1.0 5.0 0.00 0.00 0.00 11 990.3
20260904023017 92 149 2.0 5.0 0.00 0.00 0.00 11 990.3
20260904021517 94 148 3.0 8.0 0.00 0.00 0.00 10 990.2
20260904020015 96 206 4.0 9.0 0.00 0.00 0.00 9 990.2
20260904014514 98 190 4.0 9.0 0.00 0.00 0.00 9 990.3
20260904013015 100 154 5.0 11.0 0.00 0.00 0.00 9 990.3
20260904011516 100 143 6.0 11.0 0.00 0.00 0.00 9 990.3
20260904010028 101 217 7.0 13.0 0.00 0.00 0.00 8 990.5
20260904004513 100 142 7.0 15.0 0.00 0.00 0.00 10 990.4
20260904003013 101 122 8.0 18.0 0.00 0.00 0.00 11 990.5
20260904001508 102 150 8.0 19.0 0.00 0.00 0.00 9 990.6
20260904000008 101 211 7.0 16.0 0.00 0.00 0.00 10 990.7
20260903234504 100 158 8.0 16.0 0.00 0.00 0.00 13 990.8
20260903233002 100 142 9.0 18.0 0.00 0.00 0.00 14 991.1
20260903231602 100 168 9.0 16.0 0.00 0.00 0.00 14 991.3
20260903230058 101 250 5.0 15.0 0.00 0.00 0.00 13 991.4
20260903224556 101 140 4.0 18.0 0.00 0.00 0.00 13 991.7
20260903223054 99 180 8.0 19.0 0.00 0.00 0.00 14 991.9
20260903221552 100 154 8.0 15.0 0.00 0.00 0.00 13 992.2
20260903220053 100 219 6.0 14.0 0.00 0.00 0.00 12 992.3
20260903214551 100 134 8.0 13.0 0.00 0.00 0.00 11 992.5
20260903213052 101 150 8.0 18.0 0.00 0.00 0.00 11 992.8
20260903211545 100 231 8.0 24.0 0.00 0.00 0.00 10 992.9
20260903204602 99 153 9.0 16.0 0.00 0.00 0.00 10 993.2
20260903203041 99 143 9.0 19.0 0.00 0.00 0.00 10 993.4
20260903201540 100 165 8.0 15.0 0.00 0.00 0.00 9 993.5
20260903200041 98 139 6.0 12.0 0.00 0.00 0.00 9 993.7
20260903194538 99 200 7.0 19.0 0.00 0.00 0.00 10 994.0
20260903193037 97 222 5.0 10.0 0.00 0.00 0.00 11 994.3
20260903191533 95 135 6.0 12.0 0.00 0.00 0.00 13 994.7
20260903190033 95 192 5.0 11.0 0.00 0.00 0.00 13 994.9
20260903184532 95 142 5.0 11.0 0.00 0.00 0.00 14 995.2
20260903183030 94 218 5.0 10.0 0.00 0.00 0.00 15 995.5
20260903181528 94 146 5.0 11.0 0.00 0.00 0.00 15 995.5
20260903180034 92 128 7.0 11.0 0.00 0.00 0.00 17 995.6
20260903174527 92 149 4.0 10.0 0.00 0.00 0.00 17 995.8
20260903173024 91 164 5.0 11.0 0.00 0.00 0.00 18 995.9
20260903171522 91 133 5.0 10.0 0.00 0.00 0.00 18 995.8
20260903170022 89 159 3.0 8.0 0.00 0.00 0.00 19 995.9
20260903164518 88 155 6.0 10.0 0.00 0.00 0.00 19 995.9
20260903163016 87 117 6.0 9.0 0.00 0.00 0.00 19 995.9
20260903161514 87 134 3.0 7.0 0.00 0.00 0.00 19 996.0
20260903160032 87 193 3.0 6.0 0.00 0.00 0.00 19 996.0
20260903154517 85 198 0.0 2.0 0.00 0.00 0.00 20 995.9
20260903153011 84 138 0.0 2.0 0.00 0.00 0.00 21 996.1
20260903151510 82 119 2.0 4.0 0.00 0.00 0.00 22 996.1
20260903150023 80 144 1.0 5.0 0.00 0.00 0.00 23 996.1
20260903144511 80 214 1.0 5.0 0.00 0.00 0.00 23 995.9
20260903143018 79 174 1.0 4.0 0.00 0.00 0.00 23 995.8
20260903141507 77 167 0.0 4.0 0.00 0.00 0.00 23 995.7
20260903140002 75 160 0.0 2.0 0.00 0.00 0.00 24 995.4
20260903134604 74 251 0.0 1.0 0.00 0.00 0.00 25 995.3
20260903133105 73 250 0.0 4.0 0.00 0.00 0.00 24 995.0
20260903131556 74 178 1.0 6.0 0.00 0.00 0.00 24 994.8
20260903130054 73 166 1.0 4.0 0.00 0.00 0.00 24 994.7
20260903124557 73 215 0.0 3.0 0.00 0.00 0.00 24 994.6
20260903123051 74 220 1.0 4.0 0.00 0.00 0.00 25 994.4
20260903121549 74 337 0.0 0.0 0.00 0.00 0.00 23 994.3
20260903120100 74 325 0.0 0.0 0.00 0.00 0.00 22 994.3
20260903114545 75 285 0.0 0.0 0.00 0.00 0.00 22 994.3
20260903113042 76 211 0.0 1.0 0.00 0.00 0.00 22 994.3
20260903111538 77 150 0.0 0.0 0.00 0.00 0.00 22 994.3
20260903110034 79 150 0.0 4.0 0.00 0.00 0.00 20 994.2
20260903104538 80 142 1.0 5.0 0.00 0.00 0.00 19 994.2
20260903103033 80 137 2.0 5.0 0.00 0.00 0.00 18 994.2
20260903101533 80 155 2.0 6.0 0.00 0.00 0.00 18 994.1
20260903100031 79 135 2.0 5.0 0.00 0.00 0.00 18 994.0
20260903094535 79 143 1.0 4.0 0.00 0.00 0.00 19 994.0